カタログに戻る

THORAD AGENA D DEB

運用中PO
NORAD 4912·DEBRIS·🇺🇸 United States

打ち上げ Apr 8, 1970 から Vandenberg Space Force Base

Loading…

次のパス (今後24時間)

TLE

最新Source: Space-Track

元期: Sep 14, 2026, 07:44 UTC

1 04912U 70025FJ  26257.32251240  .00001852  00000-0  77819-3 0  9992
2 04912  99.7285  28.5236 0035755  54.6523 305.7987 14.26955624866805

AllMySatでTHORAD AGENA D DEBをリアルタイム追跡

Download on the App Store